{"data":{"norad_id":82912,"intl_designator":"","name":"UNKNOWN","alt_names":[],"object_type":"UNKNOWN","status":"UNKNOWN","operator":null,"country":null,"launch_date":null,"launch_site_code":null,"launch_vehicle":null,"mission":null,"orbit_class":"UNKNOWN","rcs_meters":null,"size_class":null,"mass_kg":null,"dimensions":null,"purposes":[],"wikipedia_slug":null,"has_3d_model":false,"image_url":null,"decayed_at":null,"tle_current":{"epoch":"2026-09-14T05:49:07.673088Z","epoch_age_seconds":558967,"freshness":"STALE","line1":"1 82912U          26257.24244992  .00000708  00000+0  33735-3 0  9998","line2":"2 82912  65.8324 258.5933 0757299 143.0302 222.5487 13.29184057615922","mean_motion":13.29184057,"eccentricity":0.0757299,"inclination_deg":65.8324,"raan_deg":258.5933,"arg_perigee_deg":143.0302,"mean_anomaly_deg":222.5487,"bstar":0.00033735,"rev_number":61592,"period_min":108.33714054998,"perigee_km":579.74933197134,"apogee_km":1719.93559599,"semimajor_km":7527.9794639806,"source":"CELESTRAK","updated_at":"2026-09-20T09:00:32.441012Z"}}}